AC5AN Weather Reports


time (UTC)temp
F
wind
direction
speed
knots
gust
knots
rain 1hr
in
rain 24hr
in
rain mn
in
humidity
%
barometer
mb
20260506135312 50 360 6.1 16.5 0.00 0.00 0.00 62 1015.4
20260506134819 50 360 8.7 16.5 0.00 0.00 0.00 62 1015.3
20260506134319 50 360 9.6 14.8 0.00 0.00 0.00 62 1015.3
20260506133819 50 360 8.7 14.8 0.00 0.00 0.00 62 1015.3
20260506133326 50 360 8.7 14.8 0.00 0.00 0.00 62 1015.2
20260506132826 50 360 8.7 14.8 0.00 0.00 0.00 62 1015.3
20260506132335 50 360 9.6 16.5 0.00 0.00 0.00 62 1015.3
20260506131815 50 360 9.6 20.9 0.00 0.00 0.00 62 1015.2
20260506131316 50 360 11.3 20.9 0.00 0.00 0.00 62 1015.1
20260506130844 50 360 7.8 16.5 0.00 0.00 0.00 62 1015.1
20260506130351 50 360 8.7 16.5 0.00 0.00 0.00 62 1015.0
20260506125830 50 360 9.6 16.5 0.00 0.00 0.00 62 1014.9
20260506125339 50 360 8.7 14.8 0.00 0.00 0.00 61 1014.9
20260506124819 50 360 8.7 13.0 0.00 0.00 0.00 61 1014.9
20260506124316 50 360 7.0 15.6 0.00 0.00 0.00 61 1014.7
20260506123816 50 360 8.7 15.6 0.00 0.00 0.00 61 1014.5
20260506123323 50 360 7.8 14.8 0.00 0.00 0.00 61 1014.4
20260506122824 50 360 6.1 15.6 0.00 0.00 0.00 61 1014.5
20260506122332 49 360 7.8 15.6 0.00 0.00 0.00 61 1014.5
20260506121830 49 360 8.7 14.8 0.00 0.00 0.00 61 1014.5
20260506121331 49 360 8.7 14.8 0.00 0.00 0.00 61 1014.1
20260506120820 49 360 8.7 13.9 0.00 0.00 0.00 61 1014.4
20260506120319 49 360 8.7 13.9 0.00 0.00 0.00 61 1014.4
20260506115820 49 360 7.8 14.8 0.00 0.00 0.00 61 1014.3
20260506115327 49 360 7.8 14.8 0.00 0.00 0.00 61 1014.3
20260506114827 49 360 6.1 14.8 0.00 0.00 0.00 61 1014.4
20260506114335 49 360 9.6 14.8 0.00 0.00 0.00 61 1014.0
20260506113816 49 360 8.7 13.9 0.00 0.00 0.00 61 1013.8
20260506113316 49 360 7.8 12.2 0.00 0.00 0.00 61 1013.7
20260506112817 49 360 6.1 13.9 0.00 0.00 0.00 61 1013.8
20260506112324 49 360 7.0 13.9 0.00 0.00 0.00 61 1013.8
20260506111824 49 360 7.8 13.9 0.00 0.00 0.00 61 1014.0
20260506111333 49 360 9.6 13.9 0.00 0.00 0.00 61 1013.9
20260506110812 49 360 7.8 13.0 0.00 0.00 0.00 61 1013.9
20260506110312 50 360 7.0 13.0 0.00 0.00 0.00 61 1014.1
20260506105819 50 360 6.1 13.0 0.00 0.00 0.00 61 1014.1
20260506105321 50 360 6.1 11.3 0.00 0.00 0.00 61 1014.0
20260506104828 50 360 5.2 12.2 0.00 0.00 0.00 62 1014.4
20260506104328 50 360 6.1 12.2 0.00 0.00 0.00 62 1014.3
20260506103828 50 360 5.2 10.4 0.00 0.00 0.00 62 1014.1
20260506103335 50 360 5.2 16.5 0.00 0.00 0.00 62 1014.0
20260506102815 50 360 8.7 16.5 0.00 0.00 0.00 61 1013.8
20260506102321 50 360 7.8 12.2 0.00 0.00 0.00 61 1013.7
20260506101822 50 360 5.2 10.4 0.00 0.00 0.00 61 1013.7
20260506101349 50 360 7.0 13.9 0.00 0.00 0.00 61 1013.8
20260506100828 50 360 9.6 13.9 0.00 0.00 0.00 61 1013.5
20260506100336 50 360 7.8 12.2 0.00 0.00 0.00 61 1013.5
20260506095814 50 360 7.0 14.8 0.00 0.00 0.00 61 1013.4
20260506095316 50 360 7.8 14.8 0.00 0.00 0.00 61 1013.4
20260506094822 50 360 7.0 12.2 0.00 0.00 0.00 61 1013.3
20260506094349 50 360 5.2 12.2 0.00 0.00 0.00 61 1013.5
20260506093828 50 360 7.0 12.2 0.00 0.00 0.00 61 1013.6
20260506093329 50 360 8.7 12.2 0.00 0.00 0.00 61 1013.6
20260506092837 50 360 6.1 8.7 0.00 0.00 0.00 60 1013.5
20260506092338 50 360 4.3 13.9 0.00 0.00 0.00 60 1013.7
20260506091845 50 360 8.7 13.9 0.00 0.00 0.00 60 1013.5
20260506091324 50 360 7.8 12.2 0.00 0.00 0.00 60 1013.4
20260506090813 50 360 6.1 11.3 0.00 0.00 0.00 60 1013.5
20260506090359 50 360 4.3 11.3 0.00 0.00 0.00 60 1013.6
20260506085838 50 360 6.1 12.2 0.00 0.00 0.00 61 1013.4
20260506085341 50 360 7.8 12.2 0.00 0.00 0.00 61 1013.4
20260506084848 50 360 4.3 10.4 0.00 0.00 0.00 61 1013.4
20260506084328 50 360 6.1 12.2 0.00 0.00 0.00 61 1013.3
20260506083829 50 360 5.2 11.3 0.00 0.00 0.00 62 1013.3
20260506083337 50 360 7.0 11.3 0.00 0.00 0.00 62 1013.2
20260506082817 49 360 6.1 9.6 0.00 0.00 0.00 63 1013.0
20260506082344 50 360 7.0 9.6 0.00 0.00 0.00 63 1012.8
20260506081823 50 360 4.3 9.6 0.00 0.00 0.00 63 1012.7
20260506081323 49 360 5.2 10.4 0.00 0.00 0.00 63 1012.4
20260506080830 49 360 5.2 11.3 0.00 0.00 0.00 64 1012.2
20260506080330 49 360 7.8 11.3 0.00 0.00 0.00 64 1012.1
20260506073316 49 360 7.8 12.2 0.00 0.00 0.00 66 1011.3
20260506072837 49 360 7.0 11.3 0.00 0.00 0.00 66 1011.6
20260506072343 49 360 5.2 11.3 0.00 0.00 0.00 66 1012.0
20260506071849 49 360 5.2 13.0 0.00 0.00 0.00 66 1012.1
20260506071328 49 360 7.8 13.9 0.00 0.00 0.00 66 1011.5
20260506070836 49 20 9.6 13.9 0.00 0.00 0.00 66 1011.4
20260506070317 49 360 7.8 13.0 0.00 0.00 0.00 67 1011.6
20260506062317 50 21 6.1 12.2 0.00 0.00 0.00 69 1012.0
20260506061819 50 36 6.1 12.2 0.00 0.00 0.00 69 1012.0
20260506061325 50 20 7.0 15.6 0.00 0.00 0.00 69 1011.8
20260506060832 50 31 6.1 15.6 0.00 0.00 0.00 69 1011.7
20260506060312 50 26 6.1 12.2 0.00 0.00 0.00 70 1011.7
20260506051314 50 63 6.1 13.0 0.00 0.00 0.00 68 1011.6
20260506050814 50 67 6.1 12.2 0.00 0.00 0.00 68 1011.7
20260506050322 50 77 6.1 12.2 0.00 0.00 0.00 68 1011.9
20260506044844 50 66 7.8 13.9 0.00 0.00 0.00 68 1011.6
20260506044323 50 70 7.0 13.0 0.00 0.00 0.00 68 1011.5
20260506043823 50 40 7.8 13.0 0.00 0.00 0.00 68 1011.6
20260506043351 50 360 7.0 13.0 0.00 0.00 0.00 68 1011.6
20260506042837 50 22 8.7 13.0 0.00 0.00 0.00 68 1011.7
20260506042318 50 66 7.0 13.9 0.00 0.00 0.00 68 1011.6
20260506041817 50 32 9.6 13.9 0.00 0.00 0.00 68 1011.3
20260506041345 50 63 8.7 13.9 0.00 0.00 0.00 68 1011.5
20260506040823 51 360 6.1 11.3 0.00 0.00 0.00 68 1011.6
20260506040330 51 28 7.0 12.2 0.00 0.00 0.00 68 1011.5
20260506035830 51 56 6.1 12.2 0.00 0.00 0.00 68 1011.7
20260506035330 51 84 4.3 10.4 0.00 0.00 0.00 68 1011.6
20260506034839 51 24 5.2 12.2 0.00 0.00 0.00 68 1011.5
20260506034318 51 28 4.3 12.2 0.00 0.00 0.00 68 1011.6
20260506033825 51 50 5.2 9.6 0.00 0.00 0.00 68 1011.5
20260506033326 51 46 6.1 10.4 0.00 0.00 0.00 68 1011.4
20260506032827 51 44 5.2 13.9 0.00 0.00 0.00 68 1011.3
20260506032334 51 52 7.0 13.9 0.00 0.00 0.00 67 1011.2
20260506031814 51 360 6.1 10.4 0.00 0.00 0.00 67 1011.2
20260506031313 51 360 7.0 14.8 0.00 0.00 0.00 67 1011.3
20260506030821 51 360 9.6 14.8 0.00 0.00 0.00 66 1011.0
20260506030328 51 360 7.8 15.6 0.00 0.00 0.00 66 1011.1
20260506025828 52 360 6.1 15.6 0.00 0.00 0.00 66 1010.9
20260506025335 52 360 7.0 13.0 0.00 0.00 0.00 66 1011.1
20260506024814 52 360 7.0 11.3 0.00 0.00 0.00 65 1011.1
20260506024342 52 360 6.1 11.3 0.00 0.00 0.00 65 1011.0
20260506023850 52 360 7.8 13.9 0.00 0.00 0.00 65 1010.9
20260506023328 52 360 7.8 13.9 0.00 0.00 0.00 65 1010.7
20260506022828 52 360 6.1 14.8 0.00 0.00 0.00 65 1010.7
20260506022335 52 360 8.7 14.8 0.00 0.00 0.00 65 1010.5
20260506021815 52 360 8.7 14.8 0.00 0.00 0.00 66 1010.4
20260506021315 52 347 7.0 13.9 0.00 0.00 0.00 66 1010.4
20260506020822 52 35 4.3 13.9 0.00 0.00 0.00 66 1010.3
20260506020321 52 35 6.1 13.9 0.00 0.00 0.00 66 1010.1
20260506015848 53 22 7.8 13.0 0.00 0.00 0.00 66 1010.0
20260506015327 53 42 6.1 12.2 0.00 0.00 0.00 66 1010.0
20260506014836 53 70 8.7 12.2 0.00 0.00 0.00 65 1009.7
20260506014314 53 69 7.0 12.2 0.00 0.00 0.00 66 1009.6
20260506013812 53 48 4.3 12.2 0.00 0.00 0.00 66 1009.7
20260506013313 53 49 6.1 13.0 0.00 0.00 0.00 66 1009.5
20260506012819 53 23 8.7 13.0 0.00 0.00 0.00 65 1009.4
20260506012320 53 37 5.2 13.0 0.00 0.00 0.00 65 1009.2